www.pogodaiklimat.ru

Погода и климат >> Архив погоды >> Россия >> Хабаровский край >> Чекунда


АРХИВ ПОГОДЫ в Чекунде

Время (UTC), дата Ветер
(напр.,м/с)
 
Видим.   Явления Облачность Т
(С)
Тd
(С)
f
(%)
Тe
(С)
Тes
(С)
Комфортность P
(гПа)
Po
(гПа)
Тmin
(С)
Tmax
(С)
R
(мм)
R24
(мм)
S
(см)
03 20.03 СВ 2 50 км {снег} 3/3 1000 м
[Cu med, cong]
-3.0 -10.2 58 -7 -0 1013.5 979.5
06 20.03 С 2 50 км {снег} 6/0
[Ac trans Ci fib]
-1.4 -10.4 50 -5 -1 1014.1 980.3
09 20.03 СВ 1 50 км 9/3 600 м
[Cb cap Ac cuf Ci sp]
-3.4 -10.1 60 -5 -5 1015.3 981.2 -0.0 0.3
12 20.03 СВ 1 50 км 10/8
[Cb cap Ci fib]
-5.6 -9.3 75 -8 -8 1017.2 982.8
15 20.03 штиль 0 4000 м слаб. ливневой снег 10/8 600 м
[Cb cap Cs]
-6.6 -7.6 93 -8 -8 1017.7 983.1
18 20.03 СВ 1 50 км в посл. час ливневой снег 8/0
[Ac As]
-9.7 -11.0 90 -12 -12 1017.4 982.4
21 20.03 СВ 3 50 км 10/10 1000 м
[Sc]
-11.3 -13.3 85 -17 -17 1016.8 981.6 -12.5 0.3 12
00 21.03 С 3 50 км 10/0
[Ci fib]
-7.8 -14.0 61 -13 -10 1015.5 980.8
03 21.03 С 2 50 км 6/0
[Ci fib]
-4.2 -14.8 43 -8 +1 1013.4 979.3
06 21.03 С 2 50 км 4/0
[Ci fib]
-1.3 -14.2 37 -4 +1 1010.4 976.7
09 21.03 С 1 50 км 6/0
[Ac trans Ci fib]
-4.5 -13.9 48 -6 -6 1010.3 976.2 -1.2
12 21.03 штиль 0 50 км 8/0
[Ci fib]
-10.2 -15.1 67 -10 -10 1012.2 977.3
15 21.03 Ю 1 50 км 8/0
[Ac trans Cc]
-14.3 -17.6 76 -17 -17 1013.4 977.9
18 21.03 Ю 1 50 км 6/0
[Ci fib]
-15.6 -18.4 79 -18 -18 1014.0 978.3
21 21.03 Ю 1 50 км 10/4 600 м
[Sc Ci fib]
-18.2 -20.0 86 -21 -21 1015.0 978.9 -18.2 11
00 22.03 ЮЗ 1 50 км 1/1 600 м
[Sc]
-12.9 -19.6 57 -15 -10 1015.1 979.7
03 22.03 СВ 2 50 км 3/1 1000 м
[Cu hum Ci sp]
-5.7 -17.5 39 -9 -1 1013.3 978.9
06 22.03 С 2 50 км 9/9 600 м
[Sc]
-4.8 -15.2 44 -8 -8 1012.0 977.8
09 22.03 СЗ 2 4000 м 10/4 600 м
[Sc Ci sp]
-5.8 -19.7 32 -9 -9 1012.6 978.2 -3.1
12 22.03 Ю 1 50 км 9/1
[Sc]
-9.2 -19.1 44 -11 -11 1014.7 979.8
15 22.03 ЮЗ 2 50 км 10/0
[Ci fib]
-14.0 -19.3 64 -19 -19 1014.7 979.2
18 22.03 ЮЗ 1 50 км 5/0
[Ci fib]
-17.0 -20.2 76 -20 -20 1014.5 978.6
21 22.03 ЮВ 1 50 км 10/1 600 м
[Sc Ci fib]
-18.9 -21.3 81 -22 -22 1014.6 978.5 -19.6 12
00 23.03 штиль 0 50 км 5/0
[Ci sp]
-14.3 -19.9 62 -14 -9 1014.0 978.5 -20.0
03 23.03 СВ 2 50 км 10/1 1000 м
[Cu hum Ci]
-8.2 -16.9 50 -12 -5 1011.4 976.8
06 23.03 ЮЗ 1 50 км 10/6 600 м
[Cb cap Ci]
-4.9 -19.7 30 -6 -4 1009.1 975.0
09 23.03 СЗ 2 50 км 4/1 1000 м
[Cu med, cong Ci sp]
-6.6 -21.7 29 -10 -10 1008.9 974.6 -3.9
12 23.03 Ю 1 50 км ясно -15.2 -21.6 58 -18 -18 1010.8 975.3
15 23.03 Ю 1 50 км ясно -17.3 -22.9 62 -20 -20 1010.8 975.0
18 23.03 ЮЗ 2 50 км ясно -19.8 -23.9 70 -26 -26 1010.0 973.9
21 23.03 СВ 1 50 км 1/0
[Ci fib]
-24.7 -26.9 82 -28 -28 1010.0 973.2 -24.7 11
00 24.03 СВ 2 50 км 10/0
[Ci fib]
-16.8 -23.2 58 -22 -18 1008.6 972.9
03 24.03 С 2 50 км 10/0
[Ci fib]
-8.4 -18.8 43 -12 -5 1005.6 971.1
06 24.03 СЗ 3 50 км 10/0
[Ci fib]
-6.1 -17.2 41 -11 -7 1003.8 969.7
09 24.03 штиль 0 50 км 10/0
[Ci sp]
-6.0 -19.1 35 -6 -6 1004.4 970.3 -4.1
12 24.03 ЮВ 1 50 км ясно -13.3 -18.7 64 -16 -16 1006.8 971.7
15 24.03 СВ 1 50 км 1/0
[Ci fib]
-17.9 -20.7 79 -21 -21 1007.4 971.6
18 24.03 штиль 0 50 км 8/0
[Ac As Ci fib]
-15.9 -18.6 80 -16 -16 1006.9 971.4
21 24.03 штиль 0 50 км 10/3 1000 м
[Sc Ci sp]
-17.4 -19.4 84 -17 -17 1007.3 971.6 -18.2 11
00 25.03 З 1 50 км 10/0
[Cs]
-11.4 -19.1 53 -14 -9 1007.1 972.2
03 25.03 З 1 50 км слаб. снег 10/0
[As op Cs]
-8.5 -13.3 68 -11 -5 1006.4 971.9
06 25.03 С 3 50 км {снег} 10/0
[Ci sp]
-2.7 -11.5 51 -7 -3 1004.6 970.9
09 25.03 С 1 50 км 10/0
[Ac As Ci sp]
-4.9 -10.4 65 -7 -7 1005.2 971.3 -1.2 0.0
12 25.03 ЮЗ 1 50 км 10/0
[Ci sp]
-9.2 -11.6 83 -12 -12 1007.1 972.6
15 25.03 штиль 0 50 км 10/0
[Ci fib]
-10.4 -12.6 84 -11 -11 1007.3 972.5
18 25.03 СЗ 1 50 км 10/0
[Ac As Ci fib]
-14.0 -15.3 90 -16 -16 1008.0 972.7
21 25.03 штиль 0 50 км 10/0
[Ci fib]
-16.8 -18.0 90 -17 -17 1009.2 973.5 -16.8 10
00 26.03 З 1 50 км ясно -9.3 -13.8 70 -12 -6 1009.1 974.4 -17.1
03 26.03 З 1 50 км 4/0
[Ci fib]
-3.4 -13.1 47 -5 +6 1007.8 973.9
06 26.03 ЮЗ 2 50 км в посл. час ливневой снег 10/6 600 м
[Cb cap Ci fib]
+0.7 -15.2 29 -2 0 1006.5 973.1
09 26.03 З 2 50 км в посл. час ливневой снег 10/5 600 м
[Cb cap Ci fib]
-3.0 -6.8 75 -7 -7 1007.8 973.8 +1.2 0.3
12 26.03 З 1 50 км {ливн. осадки} 10/3 600 м
[Sc Ci fib]
-3.4 -15.1 40 -5 -5 1008.7 974.8
15 26.03 З 2 50 км 3/0
[Ci fib]
-5.7 -16.1 44 -9 -9 1009.4 975.2
18 26.03 Ю 1 50 км ясно -10.9 -17.7 57 -13 -13 1010.2 975.3
21 26.03 Ю 3 50 км 8/0
[Ci fib]
-12.1 -18.8 57 -18 -18 1010.2 975.1 -12.8 10

 

Местоположение метеостанции Чекунда (Хабаровский край, Россия): широта 50.87 долгота 132.20 высота над уровнем моря 272 м.

В архиве по умолчанию представлена погода в Чекунде за последнюю неделю. Архивные данные за месяц целиком и за предыдущие месяцы, начиная с января 2011 года, Вы можете получить, выбрав интересующий диапазон дат из раскрывающегося списка и нажав кнопку "Ввод!".


*Определитесь, кто Вы:
робот инопланетянин человек

Внимание! Время в таблицах - всемирное. Для получения местного времени необходимо прибавить поправку, которая равна 10 ч.

Смотрите также архив погоды в соседних городах и на ближайших метеорологических станциях:

Погода в Чегдомыне (Хабаровский край, Россия) (59 км)
Погода в Сутуре (Хабаровский край, Россия) (89 км)
Погода в Сектагли (Хабаровский край, Россия) (98 км)
Погода в Усть-Умальте (Хабаровский край, Россия) (110 км)
Погода в Верховье Урми (Хабаровский край, Россия) (130 км)
Погода в Урми (Хабаровский край, Россия) (178 км)
Погода в Софийском Прииске (Хабаровский край, Россия) (195 км)
Погода в Куре (Хабаровский край, Россия) (200 км)
Погода в Февральске (Амурская область, Россия) (201 км)
Погода в Малиновке (Амурская область, Россия) (203 км)

Пояснения к столбцам:

Ветер - указаны скорость ветра в м/с - средняя за 10 мин, порывы в срок и между сроками (в фигурных скобках) и направление, откуда дует ветер: С - северный, СВ - северо-восточный, В - восточный, ЮВ - юго-восточный, Ю - южный, ЮЗ - юго-западный, З - западный, СЗ - северо-западный.
Видимость - горизонтальная дальность видимости в метрах или километрах. При видимости от 1 до 10 км при отсутствии осадков обычно наблюдается дымка, при ухудшении видимости до 1 км и менее - туман. В сухую погоду видимость может ухудшаться дымом, пылью или мглою.
Явления - указаны атмосферные явления, наблюдавшиеся в срок или в последний час перед сроком; фигурными скобками обозначены явления, наблюдавшиеся между сроками (за 1-3 часа до срока); квадратными скобками обозначены град или гололедные отложения с указанием их диаметра в мм.
Облачность - указаны через наклонную черту общая и нижняя облачность в баллах и высота нижней границы облаков в метрах; квадратными скобками обозначены формы облаков: Ci - перистые, Cs - перисто-слоистые, Cc - перисто-кучевые, Ac - высококучевые, As - высокослоистые, Sc - слоисто-кучевые, Ns - слоисто-дождевые, Cu - кучевые, Cb - кучево-дождевые. Подробнее классификацию облаков см. в Атласе облаков (PDF).
T - Температура воздуха - температура, измеренная на высоте 2 м над землей.
Td - Температура точки росы - температура, при понижении до которой содержащийся в воздухе водяной пар достигнет насыщения.
f - Относительная влажность воздуха - влажноcть воздуха, измеренная на высоте 2 м над землей.
Te - Эффективная температура - температура, которую ощущает одетый по сезону человек в тени. Характеристика душности погоды. При расчете учитывается влияние влажности воздуха и скорости ветра на теплоощущения человека.
Tes - Эффективная температура на солнце - температура, которую ощущает человек, с поправкой на солнечный нагрев. Характеристика знойности погоды. Зависит от высоты солнца над горизонтом, облачности и скорости ветра. Ночью, в пасмурную погоду, а также при ветре 12 м/с и более поправка равна нулю.
P - Атмосферное давление - приведенное к уровню моря атмосферное давление.
Po - Атмосферное давление - измеренное на уровне метеостанции атмосферное давление.
Tmin - Минимальная температура - минимум температуры воздуха на высоте 2 м над землей.
Tmax - Максимальная температура - максимум температуры воздуха на высоте 2 м над землей.
R - Количество осадков - Количество выпавших осадков за период времени, мм. При наведении курсора мыши на число - период времени, за который выпало указанное количество осадков.
R24 - Количество осадков - Количество выпавших осадков за 24 часа, мм.
S - Снежный покров - Высота снежного покрова, см. При наведении курсора мыши на число - состояние снежного покрова и степень покрытия местности в баллах.